Time,TemperatureF,DewpointF,PressureIn,WindDirection,WindDirectionDegrees,WindSpeedMPH,WindSpeedGustMPH,Humidity,HourlyPrecipIn,Conditions,Clouds,dailyrainin,SoftwareType,DateUTC
2013-01-16 00:04:00,18.7,18.0,30.71,SSE,167,0.0,-999.0,95,-99.99,,,0.01,weatherlink.com 1.10,2013-01-16 08:04:00,
2013-01-16 00:19:00,17.6,16.0,30.71,SSE,167,0.0,-999.0,94,-99.99,,,0.00,weatherlink.com 1.10,2013-01-16 08:19:00,
2013-01-16 00:34:00,17.3,16.0,30.71,SSE,167,0.0,-999.0,94,-99.99,,,0.00,weatherlink.com 1.10,2013-01-16 08:34:00,
2013-01-16 00:49:00,17.5,16.0,30.72,SSE,167,0.0,-999.0,95,-99.99,,,0.00,weatherlink.com 1.10,2013-01-16 08:49:00,
2013-01-16 01:04:00,17.7,16.0,30.71,SSE,167,0.0,-999.0,94,-99.99,,,0.00,weatherlink.com 1.10,2013-01-16 09:04:00,
2013-01-16 01:19:00,17.7,16.0,30.72,SSE,167,0.0,-999.0,94,-99.99,,,0.00,weatherlink.com 1.10,2013-01-16 09:19:00,
2013-01-16 01:34:00,18.4,17.0,30.72,SSE,167,0.0,-999.0,95,-99.99,,,0.00,weatherlink.com 1.10,2013-01-16 09:34:00,
2013-01-16 01:49:00,18.9,18.0,30.72,SSE,167,0.0,-999.0,95,-99.99,,,0.00,weatherlink.com 1.10,2013-01-16 09:49:00,
2013-01-16 02:04:00,18.4,17.0,30.73,SSE,167,0.0,-999.0,94,-99.99,,,0.00,weatherlink.com 1.10,2013-01-16 10:04:00,
2013-01-16 02:19:00,18.1,17.0,30.73,SSE,167,0.0,-999.0,95,-99.99,,,0.00,weatherlink.com 1.10,2013-01-16 10:19:00,
2013-01-16 02:35:00,17.5,16.0,30.73,SSE,167,0.0,-999.0,94,-99.99,,,0.00,weatherlink.com 1.10,2013-01-16 10:35:00,
2013-01-16 02:50:00,16.6,15.0,30.74,SSE,167,0.0,-999.0,93,-99.99,,,0.00,weatherlink.com 1.10,2013-01-16 10:50:00,
2013-01-16 03:05:00,15.4,14.0,30.73,SSE,167,0.0,-999.0,93,-99.99,,,0.00,weatherlink.com 1.10,2013-01-16 11:05:00,
2013-01-16 03:20:00,14.4,13.0,30.73,SSE,167,0.0,-999.0,92,-99.99,,,0.00,weatherlink.com 1.10,2013-01-16 11:20:00,
2013-01-16 03:35:00,13.1,11.0,30.73,SSE,167,0.0,-999.0,91,-99.99,,,0.00,weatherlink.com 1.10,2013-01-16 11:35:00,
2013-01-16 03:50:00,12.4,10.0,30.73,SSE,167,0.0,-999.0,91,-99.99,,,0.00,weatherlink.com 1.10,2013-01-16 11:50:00,
2013-01-16 04:05:00,11.6,10.0,30.73,SSE,167,0.0,-999.0,91,-99.99,,,0.00,weatherlink.com 1.10,2013-01-16 12:05:00,
2013-01-16 04:23:00,10.5,8.0,30.73,SSE,167,0.0,-999.0,90,-99.99,,,0.00,weatherlink.com 1.10,2013-01-16 12:23:00,
2013-01-16 04:35:00,10.3,8.0,30.74,SSE,167,0.0,-999.0,91,-99.99,,,0.00,weatherlink.com 1.10,2013-01-16 12:35:00,
2013-01-16 04:50:00,10.1,8.0,30.73,SSE,167,0.0,-999.0,91,-99.99,,,0.00,weatherlink.com 1.10,2013-01-16 12:50:00,
2013-01-16 05:05:00,10.0,8.0,30.73,SSE,167,0.0,-999.0,91,-99.99,,,0.00,weatherlink.com 1.10,2013-01-16 13:05:00,
2013-01-16 05:20:00,8.9,6.0,30.73,SSE,167,0.0,-999.0,89,-99.99,,,0.00,weatherlink.com 1.10,2013-01-16 13:20:00,
2013-01-16 05:35:00,7.6,5.0,30.74,SSE,167,0.0,-999.0,89,-99.99,,,0.00,weatherlink.com 1.10,2013-01-16 13:35:00,
2013-01-16 05:50:00,6.4,4.0,30.74,SSE,167,0.0,-999.0,89,-99.99,,,0.00,weatherlink.com 1.10,2013-01-16 13:50:00,
2013-01-16 06:05:00,7.1,5.0,30.74,SSE,167,0.0,-999.0,91,-99.99,,,0.00,weatherlink.com 1.10,2013-01-16 14:05:00,
2013-01-16 06:23:00,7.3,5.0,30.74,SSE,167,0.0,-999.0,89,-99.99,,,0.00,weatherlink.com 1.10,2013-01-16 14:23:00,
2013-01-16 06:35:00,6.2,4.0,30.75,SSE,167,0.0,-999.0,90,-99.99,,,0.00,weatherlink.com 1.10,2013-01-16 14:35:00,
2013-01-16 06:53:00,6.4,4.0,30.75,SSE,167,0.0,-999.0,90,-99.99,,,0.00,weatherlink.com 1.10,2013-01-16 14:53:00,
2013-01-16 07:05:00,6.4,4.0,30.75,SSE,167,0.0,-999.0,91,-99.99,,,0.00,weatherlink.com 1.10,2013-01-16 15:05:00,
2013-01-16 07:20:00,6.8,5.0,30.75,SSE,167,0.0,-999.0,90,-99.99,,,0.00,weatherlink.com 1.10,2013-01-16 15:20:00,
2013-01-16 07:35:00,5.1,2.0,30.76,SSE,167,0.0,-999.0,88,-99.99,,,0.00,weatherlink.com 1.10,2013-01-16 15:35:00,
2013-01-16 07:50:00,4.6,2.0,30.77,SSE,167,0.0,-999.0,89,-99.99,,,0.00,weatherlink.com 1.10,2013-01-16 15:50:00,
2013-01-16 08:05:00,5.5,4.0,30.78,SSE,167,0.0,-999.0,91,-99.99,,,0.00,weatherlink.com 1.10,2013-01-16 16:05:00,
2013-01-16 08:20:00,7.4,5.0,30.78,SSE,167,0.0,-999.0,91,-99.99,,,0.00,weatherlink.com 1.10,2013-01-16 16:20:00,
2013-01-16 08:35:00,7.3,5.0,30.79,SSE,167,1.0,-999.0,90,-99.99,,,0.00,weatherlink.com 1.10,2013-01-16 16:35:00,
2013-01-16 08:50:00,6.7,4.0,30.79,SSE,167,0.0,-999.0,90,-99.99,,,0.00,weatherlink.com 1.10,2013-01-16 16:50:00,
2013-01-16 09:05:00,8.5,7.0,30.77,SSE,167,0.0,-999.0,92,-99.99,,,0.00,weatherlink.com 1.10,2013-01-16 17:05:00,
2013-01-16 09:20:00,10.2,8.0,30.78,SSE,167,0.0,-999.0,92,-99.99,,,0.00,weatherlink.com 1.10,2013-01-16 17:20:00,
2013-01-16 09:35:00,12.0,10.0,30.78,SSE,167,0.0,-999.0,92,-99.99,,,0.00,weatherlink.com 1.10,2013-01-16 17:35:00,
2013-01-16 09:50:00,15.4,14.0,30.78,SSE,167,0.0,-999.0,92,-99.99,,,0.00,weatherlink.com 1.10,2013-01-16 17:50:00,
2013-01-16 10:05:00,17.3,16.0,30.78,SSE,167,0.0,-999.0,93,-99.99,,,0.00,weatherlink.com 1.10,2013-01-16 18:05:00,
2013-01-16 10:20:00,18.5,17.0,30.78,SSE,167,0.0,-999.0,93,-99.99,,,0.00,weatherlink.com 1.10,2013-01-16 18:20:00,
2013-01-16 10:36:00,20.0,18.0,30.77,SSE,167,0.0,-999.0,93,-99.99,,,0.00,weatherlink.com 1.10,2013-01-16 18:36:00,
2013-01-16 10:51:00,19.9,18.0,30.77,SSE,167,0.0,-999.0,93,-99.99,,,0.00,weatherlink.com 1.10,2013-01-16 18:51:00,
2013-01-16 11:06:00,22.3,21.0,30.77,SSE,167,0.0,-999.0,93,-99.99,,,0.00,weatherlink.com 1.10,2013-01-16 19:06:00,
2013-01-16 11:21:00,21.6,20.0,30.76,SSE,167,0.0,-999.0,93,-99.99,,,0.00,weatherlink.com 1.10,2013-01-16 19:21:00,
2013-01-16 11:36:00,21.3,19.0,30.76,SSE,167,0.0,-999.0,92,-99.99,,,0.00,weatherlink.com 1.10,2013-01-16 19:36:00,
2013-01-16 11:51:00,23.4,22.0,30.75,SSE,167,0.0,-999.0,92,-99.99,,,0.00,weatherlink.com 1.10,2013-01-16 19:51:00,
2013-01-16 12:21:00,26.7,25.0,30.74,SSE,167,0.0,-999.0,91,-99.99,,,0.00,weatherlink.com 1.10,2013-01-16 20:21:00,
2013-01-16 12:36:00,29.7,28.0,30.74,SSE,167,0.0,-999.0,92,-99.99,,,0.00,weatherlink.com 1.10,2013-01-16 20:36:00,
2013-01-16 13:06:00,31.4,28.0,30.73,SSE,167,0.0,-999.0,88,-99.99,,,0.00,weatherlink.com 1.10,2013-01-16 21:06:00,
2013-01-16 13:21:00,31.9,29.0,30.73,SSE,167,0.0,-999.0,87,-99.99,,,0.00,weatherlink.com 1.10,2013-01-16 21:21:00,
2013-01-16 13:36:00,32.1,28.0,30.73,SSE,167,0.0,-999.0,85,-99.99,,,0.00,weatherlink.com 1.10,2013-01-16 21:36:00,
2013-01-16 13:51:00,32.3,28.0,30.73,SSE,167,0.0,-999.0,84,-99.99,,,0.00,weatherlink.com 1.10,2013-01-16 21:51:00,
2013-01-16 14:06:00,32.5,28.0,30.73,SSE,167,0.0,-999.0,84,-99.99,,,0.00,weatherlink.com 1.10,2013-01-16 22:06:00,
2013-01-16 14:21:00,33.2,28.0,30.73,SSE,167,0.0,-999.0,82,-99.99,,,0.00,weatherlink.com 1.10,2013-01-16 22:21:00,
2013-01-16 14:36:00,33.7,29.0,30.73,SSE,167,0.0,-999.0,82,-99.99,,,0.00,weatherlink.com 1.10,2013-01-16 22:36:00,
2013-01-16 14:51:00,33.5,29.0,30.73,SSE,167,0.0,-999.0,83,-99.99,,,0.00,weatherlink.com 1.10,2013-01-16 22:51:00,
2013-01-16 15:06:00,33.7,29.0,30.73,SSE,167,0.0,-999.0,84,-99.99,,,0.00,weatherlink.com 1.10,2013-01-16 23:06:00,
2013-01-16 15:21:00,32.6,29.0,30.73,SSE,167,0.0,-999.0,85,-99.99,,,0.00,weatherlink.com 1.10,2013-01-16 23:21:00,
2013-01-16 15:36:00,31.8,28.0,30.73,SSE,167,0.0,-999.0,86,-99.99,,,0.01,weatherlink.com 1.10,2013-01-16 23:36:00,
2013-01-16 15:51:00,31.1,27.0,30.73,SSE,167,0.0,-999.0,86,-99.99,,,0.01,weatherlink.com 1.10,2013-01-16 23:51:00,
2013-01-16 16:06:00,28.4,25.0,30.73,SSE,167,0.0,-999.0,87,-99.99,,,0.01,weatherlink.com 1.10,2013-01-17 00:06:00,
2013-01-16 16:21:00,27.3,25.0,30.73,SSE,167,0.0,-999.0,90,-99.99,,,0.01,weatherlink.com 1.10,2013-01-17 00:21:00,
2013-01-16 16:36:00,26.6,24.0,30.73,SSE,167,0.0,-999.0,91,-99.99,,,0.01,weatherlink.com 1.10,2013-01-17 00:36:00,
2013-01-16 16:51:00,26.0,24.0,30.74,SSE,167,0.0,-999.0,92,-99.99,,,0.01,weatherlink.com 1.10,2013-01-17 00:51:00,
2013-01-16 17:06:00,25.2,23.0,30.74,SSE,167,0.0,-999.0,92,-99.99,,,0.01,weatherlink.com 1.10,2013-01-17 01:06:00,
2013-01-16 17:21:00,24.9,23.0,30.74,SSE,167,0.0,-999.0,93,-99.99,,,0.01,weatherlink.com 1.10,2013-01-17 01:21:00,
2013-01-16 17:36:00,24.3,23.0,30.74,SSE,167,0.0,-999.0,94,-99.99,,,0.01,weatherlink.com 1.10,2013-01-17 01:36:00,
2013-01-16 17:51:00,23.4,22.0,30.75,SSE,167,0.0,-999.0,93,-99.99,,,0.01,weatherlink.com 1.10,2013-01-17 01:51:00,
2013-01-16 18:06:00,22.4,21.0,30.75,SSE,167,0.0,-999.0,93,-99.99,,,0.01,weatherlink.com 1.10,2013-01-17 02:06:00,
2013-01-16 18:21:00,21.3,20.0,30.74,SSE,167,0.0,-999.0,93,-99.99,,,0.01,weatherlink.com 1.10,2013-01-17 02:21:00,
2013-01-16 18:36:00,18.9,17.0,30.75,SSE,167,0.0,-999.0,93,-99.99,,,0.01,weatherlink.com 1.10,2013-01-17 02:36:00,
2013-01-16 18:51:00,19.2,18.0,30.75,SSE,167,0.0,-999.0,95,-99.99,,,0.01,weatherlink.com 1.10,2013-01-17 02:51:00,
2013-01-16 19:06:00,19.9,19.0,30.75,SSE,167,0.0,-999.0,95,-99.99,,,0.01,weatherlink.com 1.10,2013-01-17 03:06:00,
2013-01-16 19:21:00,19.0,18.0,30.75,SSE,167,0.0,-999.0,94,-99.99,,,0.01,weatherlink.com 1.10,2013-01-17 03:21:00,
2013-01-16 19:36:00,15.5,14.0,30.75,SSE,167,0.0,-999.0,92,-99.99,,,0.01,weatherlink.com 1.10,2013-01-17 03:36:00,
2013-01-16 19:51:00,14.8,13.0,30.75,SSE,167,0.0,-999.0,93,-99.99,,,0.01,weatherlink.com 1.10,2013-01-17 03:51:00,
2013-01-16 20:06:00,15.7,14.0,30.75,SSE,167,0.0,-999.0,94,-99.99,,,0.01,weatherlink.com 1.10,2013-01-17 04:06:00,
2013-01-16 20:21:00,15.9,15.0,30.74,SSE,167,0.0,-999.0,94,-99.99,,,0.01,weatherlink.com 1.10,2013-01-17 04:21:00,
2013-01-16 20:36:00,15.7,14.0,30.74,SSE,167,0.0,-999.0,94,-99.99,,,0.01,weatherlink.com 1.10,2013-01-17 04:36:00,
2013-01-16 20:51:00,16.3,15.0,30.74,SSE,167,0.0,-999.0,94,-99.99,,,0.01,weatherlink.com 1.10,2013-01-17 04:51:00,
2013-01-16 21:06:00,15.7,14.0,30.75,SSE,167,0.0,-999.0,93,-99.99,,,0.01,weatherlink.com 1.10,2013-01-17 05:06:00,
2013-01-16 21:21:00,15.7,14.0,30.74,SSE,167,0.0,-999.0,94,-99.99,,,0.01,weatherlink.com 1.10,2013-01-17 05:21:00,
2013-01-16 21:36:00,11.3,9.0,30.74,SSE,167,0.0,-999.0,90,-99.99,,,0.01,weatherlink.com 1.10,2013-01-17 05:36:00,
2013-01-16 21:51:00,10.7,9.0,30.75,SSE,167,0.0,-999.0,92,-99.99,,,0.01,weatherlink.com 1.10,2013-01-17 05:51:00,
2013-01-16 22:06:00,11.6,10.0,30.75,SSE,167,0.0,-999.0,93,-99.99,,,0.01,weatherlink.com 1.10,2013-01-17 06:06:00,
2013-01-16 22:21:00,11.6,10.0,30.75,SSE,167,0.0,-999.0,92,-99.99,,,0.01,weatherlink.com 1.10,2013-01-17 06:21:00,
2013-01-16 22:36:00,11.8,10.0,30.75,SSE,167,0.0,-999.0,93,-99.99,,,0.01,weatherlink.com 1.10,2013-01-17 06:36:00,
2013-01-16 22:51:00,12.2,11.0,30.75,SSE,167,0.0,-999.0,93,-99.99,,,0.01,weatherlink.com 1.10,2013-01-17 06:51:00,
2013-01-16 23:06:00,11.2,9.0,30.76,SSE,167,0.0,-999.0,92,-99.99,,,0.01,weatherlink.com 1.10,2013-01-17 07:06:00,
2013-01-16 23:21:00,9.4,7.0,30.76,SSE,167,0.0,-999.0,91,-99.99,,,0.01,weatherlink.com 1.10,2013-01-17 07:21:00,
2013-01-16 23:36:00,9.5,8.0,30.77,SSE,167,0.0,-999.0,92,-99.99,,,0.01,weatherlink.com 1.10,2013-01-17 07:36:00,
2013-01-16 23:51:00,9.2,7.0,30.76,SSE,167,0.0,-999.0,91,-99.99,,,0.01,weatherlink.com 1.10,2013-01-17 07:51:00,